Year,Month,Day,Hour,Minute,Value (Times are PST for temperature in C)
2017,08,15,00,00,10.30
2017,08,15,00,01,10.30
2017,08,15,00,02,10.40
2017,08,15,00,03,10.40
2017,08,15,00,04,10.40
2017,08,15,00,05,10.40
2017,08,15,00,06,10.40
2017,08,15,00,07,10.40
2017,08,15,00,08,10.40
2017,08,15,00,09,10.40
2017,08,15,00,10,10.40
2017,08,15,00,11,10.40
2017,08,15,00,12,10.50
2017,08,15,00,13,10.50
2017,08,15,00,14,10.50
2017,08,15,00,15,10.60
2017,08,15,00,16,10.60
2017,08,15,00,17,10.60
2017,08,15,00,18,10.60
2017,08,15,00,19,10.60
2017,08,15,00,20,10.50
2017,08,15,00,21,10.50
2017,08,15,00,22,10.50
2017,08,15,00,23,10.50
2017,08,15,00,24,10.50
2017,08,15,00,25,10.50
2017,08,15,00,26,10.60
2017,08,15,00,27,10.60
2017,08,15,00,28,10.60
2017,08,15,00,29,10.60
2017,08,15,00,30,10.60
2017,08,15,00,31,10.60
2017,08,15,00,32,10.50
2017,08,15,00,33,10.50
2017,08,15,00,34,10.50
2017,08,15,00,35,10.50
2017,08,15,00,36,10.50
2017,08,15,00,37,10.50
2017,08,15,00,38,10.50
2017,08,15,00,39,10.50
2017,08,15,00,40,10.50
2017,08,15,00,41,10.50
2017,08,15,00,42,10.50
2017,08,15,00,43,10.50
2017,08,15,00,44,10.50
2017,08,15,00,45,10.50
2017,08,15,00,46,10.50
2017,08,15,00,47,10.50
2017,08,15,00,48,10.50
2017,08,15,00,49,10.50
2017,08,15,00,50,10.50
2017,08,15,00,51,10.50
2017,08,15,00,52,10.40
2017,08,15,00,53,10.40
2017,08,15,00,54,10.40
2017,08,15,00,55,10.40
2017,08,15,00,56,10.40
2017,08,15,00,57,10.40
2017,08,15,00,58,10.40
2017,08,15,00,59,10.40
2017,08,15,01,00,10.40
2017,08,15,01,01,10.40
2017,08,15,01,02,10.40
2017,08,15,01,03,10.40
2017,08,15,01,04,10.40
2017,08,15,01,05,10.40
2017,08,15,01,06,10.40
2017,08,15,01,07,10.40
2017,08,15,01,08,10.40
2017,08,15,01,09,10.40
2017,08,15,01,10,10.40
2017,08,15,01,11,10.40
2017,08,15,01,12,10.30
2017,08,15,01,13,10.30
2017,08,15,01,14,10.30
2017,08,15,01,15,10.30
2017,08,15,01,16,10.30
2017,08,15,01,17,10.30
2017,08,15,01,18,10.30
2017,08,15,01,19,10.30
2017,08,15,01,20,10.30
2017,08,15,01,21,10.30
2017,08,15,01,22,10.30
2017,08,15,01,23,10.30
2017,08,15,01,24,10.30
2017,08,15,01,25,10.30
2017,08,15,01,26,10.30
2017,08,15,01,27,10.20
2017,08,15,01,28,10.20
2017,08,15,01,29,10.20
2017,08,15,01,30,10.20
2017,08,15,01,31,10.20
2017,08,15,01,32,10.20
2017,08,15,01,33,10.20
2017,08,15,01,34,10.20
2017,08,15,01,35,10.20
2017,08,15,01,36,10.20
2017,08,15,01,37,10.20
2017,08,15,01,38,10.20
2017,08,15,01,39,10.20
2017,08,15,01,40,10.20
2017,08,15,01,41,10.20
2017,08,15,01,42,10.20
2017,08,15,01,43,10.20
2017,08,15,01,44,10.20
2017,08,15,01,45,10.10
2017,08,15,01,46,10.10
2017,08,15,01,47,10.10
2017,08,15,01,48,10.10
2017,08,15,01,49,10.10
2017,08,15,01,50,10.10
2017,08,15,01,51,10.10
2017,08,15,01,52,10.00
2017,08,15,01,53,10.00
2017,08,15,01,54,10.00
2017,08,15,01,55,10.00
2017,08,15,01,56,10.00
2017,08,15,01,57,9.90
2017,08,15,01,58,9.90
2017,08,15,01,59,9.90
2017,08,15,02,00,9.90
2017,08,15,02,01,9.90
2017,08,15,02,02,9.90
2017,08,15,02,03,9.90
2017,08,15,02,04,9.90
2017,08,15,02,05,9.90
2017,08,15,02,06,9.90
2017,08,15,02,07,9.80
2017,08,15,02,08,9.80
2017,08,15,02,09,9.80
2017,08,15,02,10,9.80
2017,08,15,02,11,9.80
2017,08,15,02,12,9.80
2017,08,15,02,13,9.80
2017,08,15,02,14,9.80
2017,08,15,02,15,9.80
2017,08,15,02,16,9.80
2017,08,15,02,17,9.80
2017,08,15,02,18,9.80
2017,08,15,02,19,9.80
2017,08,15,02,20,9.80
2017,08,15,02,21,9.80
2017,08,15,02,22,9.80
2017,08,15,02,23,9.80
2017,08,15,02,24,9.80
2017,08,15,02,25,9.80
2017,08,15,02,26,9.80
2017,08,15,02,27,9.70
2017,08,15,02,28,9.70
2017,08,15,02,29,9.70
2017,08,15,02,30,9.70
2017,08,15,02,31,9.70
2017,08,15,02,32,9.70
2017,08,15,02,33,9.70
2017,08,15,02,34,9.70
2017,08,15,02,35,9.70
2017,08,15,02,36,9.70
2017,08,15,02,37,9.70
2017,08,15,02,38,9.70
2017,08,15,02,39,9.70
2017,08,15,02,40,9.70
2017,08,15,02,41,9.70
2017,08,15,02,42,9.70
2017,08,15,02,43,9.70
2017,08,15,02,44,9.70
2017,08,15,02,45,9.70
2017,08,15,02,46,9.70
2017,08,15,02,47,9.70
2017,08,15,02,48,9.70
2017,08,15,02,49,9.70
2017,08,15,02,50,9.70
2017,08,15,02,51,9.70
2017,08,15,02,52,9.70
2017,08,15,02,53,9.70
2017,08,15,02,54,9.70
2017,08,15,02,55,9.70
2017,08,15,02,56,9.60
2017,08,15,02,57,9.60
2017,08,15,02,58,9.60
2017,08,15,02,59,9.60
2017,08,15,03,00,9.60
2017,08,15,03,01,9.60
2017,08,15,03,02,9.60
2017,08,15,03,03,9.60
2017,08,15,03,04,9.60
2017,08,15,03,05,9.60
2017,08,15,03,06,9.60
2017,08,15,03,07,9.60
2017,08,15,03,08,9.60
2017,08,15,03,09,9.60
2017,08,15,03,10,9.60
2017,08,15,03,11,9.60
2017,08,15,03,12,9.60
2017,08,15,03,13,9.60
2017,08,15,03,14,9.50
2017,08,15,03,15,9.50
2017,08,15,03,16,9.50
2017,08,15,03,17,9.50
2017,08,15,03,18,9.50
2017,08,15,03,19,9.50
2017,08,15,03,20,9.40
2017,08,15,03,21,9.40
2017,08,15,03,22,9.40
2017,08,15,03,23,9.40
2017,08,15,03,24,9.40
2017,08,15,03,25,9.30
2017,08,15,03,26,9.30
2017,08,15,03,27,9.30
2017,08,15,03,28,9.30
2017,08,15,03,29,9.30
2017,08,15,03,30,9.20
2017,08,15,03,31,9.20
2017,08,15,03,32,9.20
2017,08,15,03,33,9.20
2017,08,15,03,34,9.20
2017,08,15,03,35,9.20
2017,08,15,03,36,9.20
2017,08,15,03,37,9.20
2017,08,15,03,38,9.10
2017,08,15,03,39,9.10
2017,08,15,03,40,9.10
2017,08,15,03,41,9.10
2017,08,15,03,42,9.10
2017,08,15,03,43,9.10
2017,08,15,03,44,9.10
2017,08,15,03,45,9.10
2017,08,15,03,46,9.10
2017,08,15,03,47,9.10
2017,08,15,03,48,9.10
2017,08,15,03,49,9.10
2017,08,15,03,50,9.10
2017,08,15,03,51,9.10
2017,08,15,03,52,9.10
2017,08,15,03,53,9.10
2017,08,15,03,54,9.10
2017,08,15,03,55,9.10
2017,08,15,03,56,9.10
2017,08,15,03,57,9.10
2017,08,15,03,58,9.10
2017,08,15,03,59,9.00
2017,08,15,04,00,9.10
2017,08,15,04,01,9.00
2017,08,15,04,02,9.00
2017,08,15,04,03,9.00
2017,08,15,04,04,9.00
2017,08,15,04,05,9.00
2017,08,15,04,06,9.00
2017,08,15,04,07,8.90
2017,08,15,04,08,8.90
2017,08,15,04,09,8.90
2017,08,15,04,10,8.90
2017,08,15,04,11,8.90
2017,08,15,04,12,8.90
2017,08,15,04,13,8.90
2017,08,15,04,14,8.90
2017,08,15,04,15,8.90
2017,08,15,04,16,8.90
2017,08,15,04,17,8.80
2017,08,15,04,18,8.80
2017,08,15,04,19,8.80
2017,08,15,04,20,8.80
2017,08,15,04,21,8.80
2017,08,15,04,22,8.80
2017,08,15,04,23,8.80
2017,08,15,04,24,8.80
2017,08,15,04,25,8.80
2017,08,15,04,26,8.80
2017,08,15,04,27,8.80
2017,08,15,04,28,8.80
2017,08,15,04,29,8.80
2017,08,15,04,30,8.80
2017,08,15,04,31,8.80
2017,08,15,04,32,8.80
2017,08,15,04,33,8.80
2017,08,15,04,34,8.80
2017,08,15,04,35,8.80
2017,08,15,04,36,8.80
2017,08,15,04,37,8.80
2017,08,15,04,38,8.80
2017,08,15,04,39,8.80
2017,08,15,04,40,8.80
2017,08,15,04,41,8.80
2017,08,15,04,42,8.80
2017,08,15,04,43,8.80
2017,08,15,04,44,8.80
2017,08,15,04,45,8.80
2017,08,15,04,46,8.80
2017,08,15,04,47,8.80
2017,08,15,04,48,8.80
2017,08,15,04,49,8.80
2017,08,15,04,50,8.80
2017,08,15,04,51,8.80
2017,08,15,04,52,8.80
2017,08,15,04,53,8.80
2017,08,15,04,54,8.80
2017,08,15,04,55,8.80
2017,08,15,04,56,8.80
2017,08,15,04,57,8.70
2017,08,15,04,58,8.70
2017,08,15,04,59,8.70
2017,08,15,05,00,8.70
2017,08,15,05,01,8.70
2017,08,15,05,02,8.60
2017,08,15,05,03,8.60
2017,08,15,05,04,8.60
2017,08,15,05,05,8.60
2017,08,15,05,06,8.50
2017,08,15,05,07,8.50
2017,08,15,05,08,8.50
2017,08,15,05,09,8.50
2017,08,15,05,10,8.40
2017,08,15,05,11,8.40
2017,08,15,05,12,8.40
2017,08,15,05,13,8.40
2017,08,15,05,14,8.40
2017,08,15,05,15,8.30
2017,08,15,05,16,8.30
2017,08,15,05,17,8.30
2017,08,15,05,18,8.30
2017,08,15,05,19,8.30
2017,08,15,05,20,8.30
2017,08,15,05,21,8.20
2017,08,15,05,22,8.20
2017,08,15,05,23,8.20
2017,08,15,05,24,8.20
2017,08,15,05,25,8.20
2017,08,15,05,26,8.20
2017,08,15,05,27,8.20
2017,08,15,05,28,8.20
2017,08,15,05,29,8.10
2017,08,15,05,30,8.10
2017,08,15,05,31,8.10
2017,08,15,05,32,8.10
2017,08,15,05,33,8.10
2017,08,15,05,34,8.10
2017,08,15,05,35,8.10
2017,08,15,05,36,8.10
2017,08,15,05,37,8.10
2017,08,15,05,38,8.00
2017,08,15,05,39,8.00
2017,08,15,05,40,8.00
2017,08,15,05,41,8.00
2017,08,15,05,42,7.90
2017,08,15,05,43,7.90
2017,08,15,05,44,7.90
2017,08,15,05,45,7.90
2017,08,15,05,46,7.90
2017,08,15,05,47,7.90
2017,08,15,05,48,7.90
2017,08,15,05,49,7.90
2017,08,15,05,50,7.90
2017,08,15,05,51,7.90
2017,08,15,05,52,7.90
2017,08,15,05,53,7.80
2017,08,15,05,54,7.80
2017,08,15,05,55,7.80
2017,08,15,05,56,7.80
2017,08,15,05,57,7.90
2017,08,15,05,58,7.90
2017,08,15,05,59,7.90
2017,08,15,06,00,7.90
2017,08,15,06,01,7.90
2017,08,15,06,02,7.90
2017,08,15,06,03,7.90
2017,08,15,06,04,7.90
2017,08,15,06,05,8.00
2017,08,15,06,06,8.00
2017,08,15,06,07,8.10
2017,08,15,06,08,8.10
2017,08,15,06,09,8.20
2017,08,15,06,10,8.20
2017,08,15,06,11,8.20
2017,08,15,06,12,8.30
2017,08,15,06,13,8.30
2017,08,15,06,14,8.30
2017,08,15,06,15,8.30
2017,08,15,06,16,8.30
2017,08,15,06,17,8.30
2017,08,15,06,18,8.30
2017,08,15,06,19,8.30
2017,08,15,06,20,8.30
2017,08,15,06,21,8.30
2017,08,15,06,22,8.30
2017,08,15,06,23,8.30
2017,08,15,06,24,8.30
2017,08,15,06,25,8.20
2017,08,15,06,26,8.20
2017,08,15,06,27,8.20
2017,08,15,06,28,8.20
2017,08,15,06,29,8.20
2017,08,15,06,30,8.20
2017,08,15,06,31,8.10
2017,08,15,06,32,8.10
2017,08,15,06,33,8.10
2017,08,15,06,34,8.10
2017,08,15,06,35,8.10
2017,08,15,06,36,8.10
2017,08,15,06,37,8.10
2017,08,15,06,38,8.10
2017,08,15,06,39,8.10
2017,08,15,06,40,8.00
2017,08,15,06,41,8.10
2017,08,15,06,42,8.00
2017,08,15,06,43,8.00
2017,08,15,06,44,8.00
2017,08,15,06,45,8.00
2017,08,15,06,46,8.00
2017,08,15,06,47,8.10
2017,08,15,06,48,8.10
2017,08,15,06,49,8.10
2017,08,15,06,50,8.10
2017,08,15,06,51,8.10
2017,08,15,06,52,8.10
2017,08,15,06,53,8.10
2017,08,15,06,54,8.10
2017,08,15,06,55,8.10
2017,08,15,06,56,8.10
2017,08,15,06,57,8.10
2017,08,15,06,58,8.10
2017,08,15,06,59,8.10
2017,08,15,07,00,8.10
2017,08,15,07,01,8.20
2017,08,15,07,02,8.20
2017,08,15,07,03,8.20
2017,08,15,07,04,8.20
2017,08,15,07,05,8.20
2017,08,15,07,06,8.20
2017,08,15,07,07,8.20
2017,08,15,07,08,8.20
2017,08,15,07,09,8.20
2017,08,15,07,10,8.20
2017,08,15,07,11,8.20
2017,08,15,07,12,8.20
2017,08,15,07,13,8.20
2017,08,15,07,14,8.30
2017,08,15,07,15,8.30
2017,08,15,07,16,8.30
2017,08,15,07,17,8.30
2017,08,15,07,18,8.30
2017,08,15,07,19,8.30
2017,08,15,07,20,8.40
2017,08,15,07,21,8.40
2017,08,15,07,22,8.40
2017,08,15,07,23,8.40
2017,08,15,07,24,8.40
2017,08,15,07,25,8.40
2017,08,15,07,26,8.40
2017,08,15,07,27,8.40
2017,08,15,07,28,8.50
2017,08,15,07,29,8.50
2017,08,15,07,30,8.50
2017,08,15,07,31,8.60
2017,08,15,07,32,8.60
2017,08,15,07,33,8.60
2017,08,15,07,34,8.60
2017,08,15,07,35,8.70
2017,08,15,07,36,8.70
2017,08,15,07,37,8.70
2017,08,15,07,38,8.70
2017,08,15,07,39,8.80
2017,08,15,07,40,8.80
2017,08,15,07,41,8.90
2017,08,15,07,42,8.90
2017,08,15,07,43,8.90
2017,08,15,07,44,9.00
2017,08,15,07,45,9.00
2017,08,15,07,46,9.00
2017,08,15,07,47,9.10
2017,08,15,07,48,9.10
2017,08,15,07,49,9.20
2017,08,15,07,50,9.20
2017,08,15,07,51,9.20
2017,08,15,07,52,9.30
2017,08,15,07,53,9.30
2017,08,15,07,54,9.30
2017,08,15,07,55,9.30
2017,08,15,07,56,9.40
2017,08,15,07,57,9.40
2017,08,15,07,58,9.40
2017,08,15,07,59,9.50
2017,08,15,08,00,9.60
2017,08,15,08,01,9.60
2017,08,15,08,02,9.70
2017,08,15,08,03,9.70
2017,08,15,08,04,9.70
2017,08,15,08,05,9.70
2017,08,15,08,06,9.70
2017,08,15,08,07,9.80
2017,08,15,08,08,9.80
2017,08,15,08,09,9.80
2017,08,15,08,10,9.80
2017,08,15,08,11,9.90
2017,08,15,08,12,9.90
2017,08,15,08,13,10.00
2017,08,15,08,14,10.00
2017,08,15,08,15,10.10
2017,08,15,08,16,10.10
2017,08,15,08,17,10.10
2017,08,15,08,18,10.20
2017,08,15,08,19,10.20
2017,08,15,08,20,10.20
2017,08,15,08,21,10.20
2017,08,15,08,22,10.20
2017,08,15,08,23,10.20
2017,08,15,08,24,10.30
2017,08,15,08,25,10.30
2017,08,15,08,26,10.30
2017,08,15,08,27,10.40
2017,08,15,08,28,10.50
2017,08,15,08,29,10.50
2017,08,15,08,30,10.60
2017,08,15,08,31,10.60
2017,08,15,08,32,10.70
2017,08,15,08,33,10.70
2017,08,15,08,34,10.70
2017,08,15,08,35,10.80
2017,08,15,08,36,10.80
2017,08,15,08,37,10.90
2017,08,15,08,38,10.90
2017,08,15,08,39,10.90
2017,08,15,08,40,10.80
2017,08,15,08,41,10.80
2017,08,15,08,42,10.80
2017,08,15,08,43,10.80
2017,08,15,08,44,10.90
2017,08,15,08,45,10.90
2017,08,15,08,46,11.00
2017,08,15,08,47,11.10
2017,08,15,08,48,11.20
2017,08,15,08,49,11.20
2017,08,15,08,50,11.20
2017,08,15,08,51,11.20
2017,08,15,08,52,11.20
2017,08,15,08,53,11.30
2017,08,15,08,54,11.30
2017,08,15,08,55,11.40
2017,08,15,08,56,11.50
2017,08,15,08,57,11.60
2017,08,15,08,58,11.60
2017,08,15,08,59,11.70
2017,08,15,09,00,11.70
2017,08,15,09,01,11.70
2017,08,15,09,02,11.70
2017,08,15,09,03,11.60
2017,08,15,09,04,11.50
2017,08,15,09,05,11.50
2017,08,15,09,06,11.40
2017,08,15,09,07,11.40
2017,08,15,09,08,11.30
2017,08,15,09,09,11.30
2017,08,15,09,10,11.20
2017,08,15,09,11,11.30
2017,08,15,09,12,11.30
2017,08,15,09,13,11.30
2017,08,15,09,14,11.40
2017,08,15,09,15,11.40
2017,08,15,09,16,11.50
2017,08,15,09,17,11.50
2017,08,15,09,18,11.50
2017,08,15,09,19,11.50
2017,08,15,09,20,11.50
2017,08,15,09,21,11.60
2017,08,15,09,22,11.70
2017,08,15,09,23,11.70
2017,08,15,09,24,11.70
2017,08,15,09,25,11.70
2017,08,15,09,26,11.70
2017,08,15,09,27,11.80
2017,08,15,09,28,11.80
2017,08,15,09,29,11.80
2017,08,15,09,30,11.80
2017,08,15,09,31,11.80
2017,08,15,09,32,11.80
2017,08,15,09,33,11.80
2017,08,15,09,34,11.80
2017,08,15,09,35,12.00
2017,08,15,09,36,12.00
2017,08,15,09,37,12.10
2017,08,15,09,38,12.10
2017,08,15,09,39,12.10
2017,08,15,09,40,12.00
2017,08,15,09,41,12.00
2017,08,15,09,42,12.00
2017,08,15,09,43,12.00
2017,08,15,09,44,12.10
2017,08,15,09,45,12.20
2017,08,15,09,46,12.20
2017,08,15,09,47,12.20
2017,08,15,09,48,12.20
2017,08,15,09,49,12.20
2017,08,15,09,50,12.30
2017,08,15,09,51,12.20
2017,08,15,09,52,12.20
2017,08,15,09,53,12.20
2017,08,15,09,54,12.30
2017,08,15,09,55,12.40
2017,08,15,09,56,12.50
2017,08,15,09,57,12.60
2017,08,15,09,58,12.60
2017,08,15,09,59,12.70
2017,08,15,10,00,12.70
2017,08,15,10,01,12.70
2017,08,15,10,02,12.70
2017,08,15,10,03,12.70
2017,08,15,10,04,12.80
2017,08,15,10,05,12.80
2017,08,15,10,06,12.90
2017,08,15,10,07,12.90
2017,08,15,10,08,13.00
2017,08,15,10,09,13.00
2017,08,15,10,10,13.00
2017,08,15,10,11,13.10
2017,08,15,10,12,13.10
2017,08,15,10,13,13.20
2017,08,15,10,14,13.20
2017,08,15,10,15,13.30
2017,08,15,10,16,13.40
2017,08,15,10,17,13.50
2017,08,15,10,18,13.70
2017,08,15,10,19,13.80
2017,08,15,10,20,13.90
2017,08,15,10,21,14.10
2017,08,15,10,22,14.30
2017,08,15,10,23,14.50
2017,08,15,10,24,14.70
2017,08,15,10,25,14.80
2017,08,15,10,26,14.90
2017,08,15,10,27,14.90
2017,08,15,10,28,14.90
2017,08,15,10,29,14.90
2017,08,15,10,30,15.00
2017,08,15,10,31,15.00
2017,08,15,10,32,15.00
2017,08,15,10,33,14.90
2017,08,15,10,34,14.60
2017,08,15,10,35,14.40
2017,08,15,10,36,14.20
2017,08,15,10,37,14.10
2017,08,15,10,38,14.00
2017,08,15,10,39,13.90
2017,08,15,10,40,13.80
2017,08,15,10,41,13.70
2017,08,15,10,42,13.60
2017,08,15,10,43,13.50
2017,08,15,10,44,13.40
2017,08,15,10,45,13.40
2017,08,15,10,46,13.40
2017,08,15,10,47,13.40
2017,08,15,10,48,13.40
2017,08,15,10,49,13.40
2017,08,15,10,50,13.50
2017,08,15,10,51,13.50
2017,08,15,10,52,13.50
2017,08,15,10,53,13.50
2017,08,15,10,54,13.60
2017,08,15,10,55,13.60
2017,08,15,10,56,13.60
2017,08,15,10,57,13.70
2017,08,15,10,58,13.70
2017,08,15,10,59,13.80
2017,08,15,11,00,13.90
2017,08,15,11,01,14.00
2017,08,15,11,02,14.00
2017,08,15,11,03,14.00
2017,08,15,11,04,14.00
2017,08,15,11,05,14.10
2017,08,15,11,06,14.20
2017,08,15,11,07,14.30
2017,08,15,11,08,14.40
2017,08,15,11,09,14.50
2017,08,15,11,10,14.50
2017,08,15,11,11,14.60
2017,08,15,11,12,14.70
2017,08,15,11,13,14.70
2017,08,15,11,14,14.70
2017,08,15,11,15,14.80
2017,08,15,11,16,14.70
2017,08,15,11,17,14.70
2017,08,15,11,18,14.70
2017,08,15,11,19,14.70
2017,08,15,11,20,14.80
2017,08,15,11,21,14.80
2017,08,15,11,22,14.60
2017,08,15,11,23,14.40
2017,08,15,11,24,14.40
2017,08,15,11,25,14.40
2017,08,15,11,26,14.30
2017,08,15,11,27,14.30
2017,08,15,11,28,14.40
2017,08,15,11,29,14.50
2017,08,15,11,30,14.60
2017,08,15,11,31,14.70
2017,08,15,11,32,14.80
2017,08,15,11,33,14.90
2017,08,15,11,34,14.90
2017,08,15,11,35,14.70
2017,08,15,11,36,14.30
2017,08,15,11,37,14.10
2017,08,15,11,38,13.90
2017,08,15,11,39,13.90
2017,08,15,11,40,13.90
2017,08,15,11,41,14.00
2017,08,15,11,42,14.10
2017,08,15,11,43,14.20
2017,08,15,11,44,14.10
2017,08,15,11,45,14.10
2017,08,15,11,46,14.00
2017,08,15,11,47,13.90
2017,08,15,11,48,14.00
2017,08,15,11,49,14.20
2017,08,15,11,50,14.40
2017,08,15,11,51,14.50
2017,08,15,11,52,14.70
2017,08,15,11,53,14.80
2017,08,15,11,54,14.80
2017,08,15,11,55,14.80
2017,08,15,11,56,14.70
2017,08,15,11,57,14.60
2017,08,15,11,58,14.60
2017,08,15,11,59,14.70
2017,08,15,12,00,14.70
2017,08,15,12,01,14.50
2017,08,15,12,02,14.50
2017,08,15,12,03,14.40
2017,08,15,12,04,14.50
2017,08,15,12,05,14.70
2017,08,15,12,06,14.80
2017,08,15,12,07,15.00
2017,08,15,12,08,15.10
2017,08,15,12,09,15.20
2017,08,15,12,10,15.20
2017,08,15,12,11,15.20
2017,08,15,12,12,15.30
2017,08,15,12,13,15.40
2017,08,15,12,14,15.50
2017,08,15,12,15,15.60
2017,08,15,12,16,15.70
2017,08,15,12,17,15.80
2017,08,15,12,18,15.80
2017,08,15,12,19,15.80
2017,08,15,12,20,15.80
2017,08,15,12,21,15.90
2017,08,15,12,22,16.00
2017,08,15,12,23,16.30
2017,08,15,12,24,16.40
2017,08,15,12,25,16.60
2017,08,15,12,26,16.70
2017,08,15,12,27,16.80
2017,08,15,12,28,16.90
2017,08,15,12,29,16.90
2017,08,15,12,30,17.00
2017,08,15,12,31,17.00
2017,08,15,12,32,17.00
2017,08,15,12,33,17.10
2017,08,15,12,34,17.10
2017,08,15,12,35,17.00
2017,08,15,12,36,17.00
2017,08,15,12,37,17.10
2017,08,15,12,38,17.10
2017,08,15,12,39,16.90
2017,08,15,12,40,16.80
2017,08,15,12,41,16.70
2017,08,15,12,42,16.60
2017,08,15,12,43,16.40
2017,08,15,12,44,16.30
2017,08,15,12,45,16.20
2017,08,15,12,46,16.20
2017,08,15,12,47,16.20
2017,08,15,12,48,16.10
2017,08,15,12,49,16.00
2017,08,15,12,50,15.80
2017,08,15,12,51,15.70
2017,08,15,12,52,15.80
2017,08,15,12,53,15.80
2017,08,15,12,54,15.60
2017,08,15,12,55,15.40
2017,08,15,12,56,15.30
2017,08,15,12,57,15.10
2017,08,15,12,58,14.90
2017,08,15,12,59,14.90
2017,08,15,13,00,15.00
2017,08,15,13,01,15.00
2017,08,15,13,02,15.00
2017,08,15,13,03,15.10
2017,08,15,13,04,15.10
2017,08,15,13,05,15.00
2017,08,15,13,06,15.00
2017,08,15,13,07,15.00
2017,08,15,13,08,14.90
2017,08,15,13,09,14.70
2017,08,15,13,10,14.70
2017,08,15,13,11,14.70
2017,08,15,13,12,14.60
2017,08,15,13,13,14.50
2017,08,15,13,14,14.40
2017,08,15,13,15,14.30
2017,08,15,13,16,14.30
2017,08,15,13,17,14.30
2017,08,15,13,18,14.50
2017,08,15,13,19,14.70
2017,08,15,13,20,14.90
2017,08,15,13,21,15.20
2017,08,15,13,22,15.40
2017,08,15,13,23,15.60
2017,08,15,13,24,15.70
2017,08,15,13,25,15.60
2017,08,15,13,26,15.60
2017,08,15,13,27,15.50
2017,08,15,13,28,15.50
2017,08,15,13,29,15.40
2017,08,15,13,30,15.40
2017,08,15,13,31,15.40
2017,08,15,13,32,15.40
2017,08,15,13,33,15.30
2017,08,15,13,34,15.40
2017,08,15,13,35,15.50
2017,08,15,13,36,15.50
2017,08,15,13,37,15.60
2017,08,15,13,38,15.70
2017,08,15,13,39,15.70
2017,08,15,13,40,15.80
2017,08,15,13,41,15.80
2017,08,15,13,42,15.70
2017,08,15,13,43,15.70
2017,08,15,13,44,15.70
2017,08,15,13,45,15.80
2017,08,15,13,46,15.90
2017,08,15,13,47,16.00
2017,08,15,13,48,15.90
2017,08,15,13,49,15.80
2017,08,15,13,50,15.80
2017,08,15,13,51,15.80
2017,08,15,13,52,16.00
2017,08,15,13,53,16.10
2017,08,15,13,54,16.30
2017,08,15,13,55,16.40
2017,08,15,13,56,16.50
2017,08,15,13,57,16.60
2017,08,15,13,58,16.60
2017,08,15,13,59,16.70
2017,08,15,14,00,16.80
2017,08,15,14,01,16.80
2017,08,15,14,02,16.70
2017,08,15,14,03,16.50
2017,08,15,14,04,16.30
2017,08,15,14,05,16.00
2017,08,15,14,06,15.90
2017,08,15,14,07,15.70
2017,08,15,14,08,15.70
2017,08,15,14,09,15.60
2017,08,15,14,10,15.50
2017,08,15,14,11,15.50
2017,08,15,14,12,15.40
2017,08,15,14,13,15.30
2017,08,15,14,14,15.20
2017,08,15,14,15,15.30
2017,08,15,14,16,15.30
2017,08,15,14,17,15.40
2017,08,15,14,18,15.40
2017,08,15,14,19,15.40
2017,08,15,14,20,15.30
2017,08,15,14,21,15.20
2017,08,15,14,22,15.10
2017,08,15,14,23,15.10
2017,08,15,14,24,15.10
2017,08,15,14,25,15.10
2017,08,15,14,26,15.10
2017,08,15,14,27,15.10
2017,08,15,14,28,15.00
2017,08,15,14,29,15.00
2017,08,15,14,30,15.00
2017,08,15,14,31,14.90
2017,08,15,14,32,14.80
2017,08,15,14,33,14.80
2017,08,15,14,34,14.70
2017,08,15,14,35,14.70
2017,08,15,14,36,14.80
2017,08,15,14,37,14.90
2017,08,15,14,38,15.00
2017,08,15,14,39,15.20
2017,08,15,14,40,15.30
2017,08,15,14,41,15.60
2017,08,15,14,42,15.80
2017,08,15,14,43,16.00
2017,08,15,14,44,16.10
2017,08,15,14,45,16.30
2017,08,15,14,46,16.50
2017,08,15,14,47,16.60
2017,08,15,14,48,16.70
2017,08,15,14,49,16.60
2017,08,15,14,50,16.70
2017,08,15,14,51,16.70
2017,08,15,14,52,16.80
2017,08,15,14,53,16.80
2017,08,15,14,54,16.90
2017,08,15,14,55,17.20
2017,08,15,14,56,17.30
2017,08,15,14,57,17.40
2017,08,15,14,58,17.30
2017,08,15,14,59,17.30
2017,08,15,15,00,17.30
2017,08,15,15,01,17.30
2017,08,15,15,02,17.30
2017,08,15,15,03,17.30
2017,08,15,15,04,17.20
2017,08,15,15,05,17.10
2017,08,15,15,06,17.00
2017,08,15,15,07,16.80
2017,08,15,15,08,16.70
2017,08,15,15,09,16.50
2017,08,15,15,10,16.30
2017,08,15,15,11,16.20
2017,08,15,15,12,16.10
2017,08,15,15,13,16.10
2017,08,15,15,14,16.00
2017,08,15,15,15,15.90
2017,08,15,15,16,16.00
2017,08,15,15,17,16.10
2017,08,15,15,18,16.20
2017,08,15,15,19,16.30
2017,08,15,15,20,16.30
2017,08,15,15,21,16.30
2017,08,15,15,22,16.20
2017,08,15,15,23,16.10
2017,08,15,15,24,16.10
2017,08,15,15,25,16.00
2017,08,15,15,26,15.90
2017,08,15,15,27,15.80
2017,08,15,15,28,15.80
2017,08,15,15,29,15.80
2017,08,15,15,30,15.70
2017,08,15,15,31,15.60
2017,08,15,15,32,15.40
2017,08,15,15,33,15.20
2017,08,15,15,34,15.10
2017,08,15,15,35,15.00
2017,08,15,15,36,14.90
2017,08,15,15,37,14.90
2017,08,15,15,38,14.90
2017,08,15,15,39,14.90
2017,08,15,15,40,14.80
2017,08,15,15,41,14.80
2017,08,15,15,42,14.70
2017,08,15,15,43,14.80
2017,08,15,15,44,14.80
2017,08,15,15,45,14.80
2017,08,15,15,46,14.80
2017,08,15,15,47,14.80
2017,08,15,15,48,14.80
2017,08,15,15,49,14.70
2017,08,15,15,50,14.70
2017,08,15,15,51,14.60
2017,08,15,15,52,14.40
2017,08,15,15,53,14.40
2017,08,15,15,54,14.30
2017,08,15,15,55,14.20
2017,08,15,15,56,14.20
2017,08,15,15,57,14.20
2017,08,15,15,58,14.20
2017,08,15,15,59,14.10
2017,08,15,16,00,14.00
2017,08,15,16,01,13.90
2017,08,15,16,02,13.90
2017,08,15,16,03,13.90
2017,08,15,16,04,13.90
2017,08,15,16,05,13.90
2017,08,15,16,06,14.00
2017,08,15,16,07,14.10
2017,08,15,16,08,14.20
2017,08,15,16,09,14.30
2017,08,15,16,10,14.40
2017,08,15,16,11,14.40
2017,08,15,16,12,14.40
2017,08,15,16,13,14.50
2017,08,15,16,14,14.50
2017,08,15,16,15,14.50
2017,08,15,16,16,14.40
2017,08,15,16,17,14.40
2017,08,15,16,18,14.20
2017,08,15,16,19,14.10
2017,08,15,16,20,14.10
2017,08,15,16,21,14.10
2017,08,15,16,22,14.10
2017,08,15,16,23,14.10
2017,08,15,16,24,14.10
2017,08,15,16,25,14.20
2017,08,15,16,26,14.20
2017,08,15,16,27,14.20
2017,08,15,16,28,14.10
2017,08,15,16,29,14.00
2017,08,15,16,30,14.00
2017,08,15,16,31,14.10
2017,08,15,16,32,14.00
2017,08,15,16,33,14.00
2017,08,15,16,34,14.00
2017,08,15,16,35,14.10
2017,08,15,16,36,14.20
2017,08,15,16,37,14.20
2017,08,15,16,38,14.30
2017,08,15,16,39,14.40
2017,08,15,16,40,14.50
2017,08,15,16,41,14.60
2017,08,15,16,42,14.60
2017,08,15,16,43,14.70
2017,08,15,16,44,14.80
2017,08,15,16,45,14.90
2017,08,15,16,46,14.90
2017,08,15,16,47,15.00
2017,08,15,16,48,15.10
2017,08,15,16,49,15.20
2017,08,15,16,50,15.30
2017,08,15,16,51,15.30
2017,08,15,16,52,15.40
2017,08,15,16,53,15.40
2017,08,15,16,54,15.30
2017,08,15,16,55,15.30
2017,08,15,16,56,15.20
2017,08,15,16,57,15.20
2017,08,15,16,58,15.20
2017,08,15,16,59,15.30
2017,08,15,17,00,15.40
2017,08,15,17,01,15.50
2017,08,15,17,02,15.50
2017,08,15,17,03,15.60
2017,08,15,17,04,15.80
2017,08,15,17,05,15.80
2017,08,15,17,06,15.90
2017,08,15,17,07,15.90
2017,08,15,17,08,16.00
2017,08,15,17,09,16.00
2017,08,15,17,10,15.90
2017,08,15,17,11,15.80
2017,08,15,17,12,15.70
2017,08,15,17,13,15.70
2017,08,15,17,14,15.70
2017,08,15,17,15,15.60
2017,08,15,17,16,15.60
2017,08,15,17,17,15.60
2017,08,15,17,18,15.60
2017,08,15,17,19,15.60
2017,08,15,17,20,15.70
2017,08,15,17,21,15.80
2017,08,15,17,22,15.90
2017,08,15,17,23,16.00
2017,08,15,17,24,16.10
2017,08,15,17,25,16.20
2017,08,15,17,26,16.30
2017,08,15,17,27,16.40
2017,08,15,17,28,16.50
2017,08,15,17,29,16.60
2017,08,15,17,30,16.70
2017,08,15,17,31,16.80
2017,08,15,17,32,16.80
2017,08,15,17,33,16.90
2017,08,15,17,34,17.10
2017,08,15,17,35,17.20